This demonstration page uses our WeatherBlox Daily Observations layout. Learn more.

Left ArrowRight Arrow

Hourly Observations for July 7, 2016

Temp ( °F °C ) Dew Point ( °F °C ) Humidity (%) Winds ( mph kmh ) Pressure ( in mb ) Visibility ( mi km ) Precip ( " mm )
12:19 am 00:19 Cloudy with Nearby Thunderstorms 76 24.4 62 16.7 62 62 NNE 17 28 29.68 1005 10 16 0.00 0.03
12:27 am 00:27 Cloudy with Thunderstorms 74 23.3 61 16.1 64 64 NE 15 24 29.65 1004 10 16 0.00 0.03
12:39 am 00:39 Cloudy with Strong Thunderstorms 69 20.6 61 16.1 76 76 WNW 24 39 29.85 1011 2 2 0.18 4.57
12:42 am 00:42 Cloudy with Strong Thunderstorms 66 19 63 17 88 88 WNW 31 50 29.85 1011 1 1 0.00 0.00
12:49 am 00:49 Cloudy with Strong Thunderstorms 64 18 61 16 88 88 NW 32 52 29.83 1010 1 2 0.33 8.38
12:53 am 00:53 Cloudy with Thunderstorms 64 17.8 61 16.1 90 90 NW 29 46 29.81 1010 2 3 0.35 8.89
1:01 am 01:01 Cloudy with Thunderstorms 65 18.3 59 15 81 81 N 39 63 29.74 1007 6 10 0.01 0.25
1:09 am 01:09 Windy with Storms Likely 67 19.4 57 13.9 71 71 N 26 43 29.77 1008 2 3 0.01 0.25
1:18 am 01:18 Windy with Storms Likely 68 20 57 14 69 69 N 30 48 29.71 1006 10 16 0.00 0.00
1:53 am 01:53 Mostly Clear 70 21.1 58 14.4 66 66 ENE 14 22 29.61 1003 10 16 0.01 0.25
2:53 am 02:53 Clear 70 21.1 60 15.6 71 71 S 10 17 29.63 1004 10 16 0.00 0.00
3:53 am 03:53 Clear 68 20 62 16.7 81 81 S 10 17 29.81 1010 10 16 0.00 0.00
4:18 am 04:18 Mostly Cloudy with Thunderstorms 66 19 63 17 88 88 SSW 10 17 29.83 1010 10 16 0.00 0.00
4:43 am 04:43 Cloudy with Nearby Thunderstorms 66 18.9 64 17.8 93 93 ESE 21 33 29.74 1007 8 13 0.06 1.52
4:50 am 04:50 Cloudy with Nearby Thunderstorms 64 18 63 17 94 94 E 20 31 29.71 1006 9 14 0.07 1.78
4:53 am 04:53 Mostly Cloudy with Nearby Thunderstorms 65 18.3 63 17.2 93 93 E 20 31 29.69 1006 10 16 0.07 1.78
4:58 am 04:58 Mostly Cloudy with Light Rain 64 18 63 17 94 94 E 18 30 29.68 1005 10 16 0.00 0.00
5:53 am 05:53 Mostly Cloudy with Light Rain 67 19.4 62 16.7 84 84 SE 24 39 29.66 1005 10 16 0.02 0.51
6:53 am 06:53 Mostly Cloudy with Light Rain 66 18.9 62 16.7 87 87 SE 12 19 29.66 1005 10 16 0.01 0.25
7:53 am 07:53 Sunny 68 20 62 16.7 81 81 SSE 20 31 29.66 1005 10 16 0.00 0.03
8:53 am 08:53 Sunny 71 21.7 62 16.7 73 73 S 6 9 29.72 1007 10 16 0.00 0.00
9:53 am 09:53 Mostly Cloudy 73 22.8 63 17.2 71 71 SW 6 9 29.76 1008 10 16 0.00 0.00
10:53 am 10:53 Mostly Sunny 76 24.4 64 17.8 67 67 SSW 12 19 29.76 1008 10 16 0.00 0.00
11:53 am 11:53 Mostly Cloudy 78 25.6 64 17.8 62 62 SW 10 17 29.79 1009 10 16 0.00 0.00
12:53 pm 12:53 Partly Cloudy 80 26.7 65 18.3 60 60 WSW 10 17 29.83 1010 10 16 0.00 0.00
1:53 pm 13:53 Sunny 84 28.9 68 20 59 59 W 13 20 29.82 1010 10 16 0.00 0.00
2:53 pm 14:53 Mostly Cloudy 84 28.9 67 19.4 57 57 W 8 13 29.82 1010 10 16 0.00 0.00
3:53 pm 15:53 Sunny 87 30.6 69 20.6 55 55 NW 13 20 29.81 1010 10 16 0.00 0.00
4:53 pm 16:53 Sunny 88 31.1 70 21.1 55 55 NW 10 17 29.82 1010 10 16 0.00 0.00
5:53 pm 17:53 Sunny 88 31.1 66 18.9 48 48 N 14 22 29.83 1010 10 16 0.00 0.00
6:53 pm 18:53 Sunny 86 30 65 18.3 49 49 N 8 13 29.84 1010 10 16 0.00 0.00
7:53 pm 19:53 Sunny 82 27.8 68 20 63 63 NNE 6 9 29.85 1011 10 16 0.00 0.00
8:53 pm 20:53 Sunny 77 25 68 20 74 74 NNE 8 13 29.88 1012 10 16 0.00 0.00
9:53 pm 21:53 Clear 76 24.4 67 19.4 74 74 NNE 12 19 29.91 1013 10 16 0.00 0.00
10:53 pm 22:53 Clear 72 22.2 65 18.3 79 79 NNE 13 20 29.92 1013 10 16 0.00 0.00
11:53 pm 23:53 Clear 70 21.1 65 18.3 84 84 NNE 7 11 29.92 1013 10 16 0.00 0.00

Powered by AerisWeather